Weather History for Mazatlan Airport, Mexico

Change the Weather History Date:

Thursday, March 28, 2013

  Actual Average Record
Temperature  
Mean Temperature 72 °F -  
Max Temperature 87 °F 80 °F 87 °F (1997)
Min Temperature 57 °F 54 °F 48 °F (2011)
Cooling Degree Days 7    
Growing Degree Days 22 (Base 50)    
Moisture  
Dew Point 54 °F    
Average Humidity 58    
Maximum Humidity 88    
Minimum Humidity 21    
Precipitation  
Precipitation 0.00 in - - ()
Sea Level Pressure  
Sea Level Pressure 29.96 in    
Wind  
Wind Speed 7 mph ()    
Max Wind Speed 16 mph    
Max Gust Speed -    
Visibility 11.0 miles    
Events      
Averages and records for this station are not official NWS values.
T = Trace of Precipitation, MM = Missing Value Source: Averaged Metar Reports

Daily Weather History Graph

Daily Weather History Graph

Search for Another Location

Airport:

Trip Planner

Search our weather history database for the weather conditions in past years. The results will help you decide how hot, cold, wet, or windy it might be!

Date:

Astronomy

Mar. 28, 2013 Rise Set
Actual Time 6:00 AM MST 6:19 PM MST
Civil Twilight 5:38 AM MST 6:41 PM MST
Nautical Twilight 5:12 AM MST 7:08 PM MST
Astronomical Twilight 4:45 AM MST 7:34 PM MST
Moon 7:56 PM MST (3/28) 6:44 AM MST (3/28)
Length of Visible Light 13h 03m
Length of Day
12h 18m
Full, 98% of the Moon is Illuminated
Mar 28
Full
Apr 2
Last Quarter
Apr 10
New
Apr 18
First Quarter
Apr 25
Full

Hourly Weather History & Observations

Time (MST) Temp. Heat Index Dew Point Humidity Pressure Visibility Wind Dir Wind Speed Gust Speed Precip Events Conditions
12:43 AM 60.8 °F - 55.4 °F 82% 29.99 in 6.0 mi North 5.8 mph - N/A   Mostly Cloudy
1:47 AM 59.0 °F - 53.6 °F 82% 29.98 in 8.0 mi North 9.2 mph - N/A   Scattered Clouds
2:00 AM 67 °F - 64 °F 88% 29.99 in - Calm Calm - -  
2:41 AM 57.2 °F - 53.6 °F 88% 29.96 in 2.0 mi North 6.9 mph - N/A   Scattered Clouds
3:40 AM 57.2 °F - 51.8 °F 82% 29.94 in 4.0 mi North 8.1 mph - N/A   Scattered Clouds
4:43 AM 57.2 °F - 51.8 °F 82% 29.94 in 6.0 mi North 6.9 mph - N/A   Scattered Clouds
5:00 AM 65 °F - 61 °F 83% 29.96 in - NW 2.2 mph - -  
5:48 AM 57.2 °F - 51.8 °F 82% 29.95 in 10.0 mi North 9.2 mph - N/A   Partly Cloudy
6:46 AM 57.2 °F - 51.8 °F 82% 29.97 in 10.0 mi North 6.9 mph - N/A   Mostly Cloudy
7:43 AM 62.6 °F - 53.6 °F 72% 29.98 in 12.0 mi North 6.9 mph - N/A   Mostly Cloudy
8:00 AM 75 °F - 60 °F 49% 29.99 in - NNW 2.2 mph - -  
8:41 AM 73.4 °F - 55.4 °F 53% 29.99 in 12.0 mi NNE 4.6 mph - N/A   Mostly Cloudy
9:50 AM 80.6 °F - 50.0 °F 34% 29.99 in 12.0 mi NNE 6.9 mph - N/A   Mostly Cloudy
10:49 AM 86.0 °F - 50.0 °F 29% 29.98 in 15.0 mi SW 11.5 mph - N/A   Mostly Cloudy
11:00 AM 81 °F - 64 °F 46% 29.99 in - WSW 6.7 mph - -  
11:50 AM 87.8 °F - 48.2 °F 25% 29.96 in 15.0 mi SW 12.7 mph - N/A   Mostly Cloudy
12:43 PM 87.8 °F - 42.8 °F 21% 29.94 in 15.0 mi SW 10.4 mph - N/A   Mostly Cloudy
1:48 PM 84.2 °F - 50.0 °F 30% 29.92 in 15.0 mi WSW 16.1 mph - N/A   Mostly Cloudy
2:44 PM 84.2 °F 82.8 °F 53.6 °F 35% 29.90 in 15.0 mi WSW 16.1 mph - N/A   Mostly Cloudy
3:41 PM 82.4 °F 81.4 °F 53.6 °F 37% 29.90 in 15.0 mi WSW 12.7 mph - N/A   Mostly Cloudy
4:47 PM 82.4 °F 81.7 °F 55.4 °F 39% 29.92 in 15.0 mi West 15.0 mph - N/A   Mostly Cloudy
5:41 PM 80.6 °F - 51.8 °F 37% 29.91 in 15.0 mi West 10.4 mph - N/A   Scattered Clouds
6:43 PM 71.6 °F - 46.4 °F 41% 29.92 in 12.0 mi West 9.2 mph - N/A   Scattered Clouds
7:43 PM 69.8 °F - 50.0 °F 49% 29.94 in 10.0 mi West 8.1 mph - N/A   Partly Cloudy
8:00 PM 74 °F - 63 °F 59% 29.96 in - West 4.5 mph - -  
8:43 PM 68.0 °F - 51.8 °F 56% 29.96 in 10.0 mi West 6.9 mph - N/A   Partly Cloudy
9:41 PM 64.4 °F - 50.0 °F 59% 29.98 in 10.0 mi WNW 6.9 mph - N/A   Partly Cloudy
10:52 PM 60.8 °F - 50.0 °F 68% 29.99 in 10.0 mi East 6.9 mph - N/A   Partly Cloudy
11:00 PM 70 °F - 65 °F 81% 29.99 in - NNW 2.2 mph - -  
11:40 PM 59.0 °F - 48.2 °F 67% 29.98 in 10.0 mi ENE 6.9 mph - N/A   Clear